Year,Month,Day,Hour,Minute,Value (Times are PST for temperature in C)
2016,08,24,00,00,16.30
2016,08,24,00,01,16.30
2016,08,24,00,02,16.30
2016,08,24,00,03,16.30
2016,08,24,00,04,16.30
2016,08,24,00,05,16.30
2016,08,24,00,06,16.30
2016,08,24,00,07,16.30
2016,08,24,00,08,16.30
2016,08,24,00,09,16.30
2016,08,24,00,10,16.30
2016,08,24,00,11,16.20
2016,08,24,00,12,16.20
2016,08,24,00,13,16.20
2016,08,24,00,14,16.20
2016,08,24,00,15,16.20
2016,08,24,00,16,16.20
2016,08,24,00,17,16.20
2016,08,24,00,18,16.20
2016,08,24,00,19,16.20
2016,08,24,00,20,16.20
2016,08,24,00,21,16.10
2016,08,24,00,22,16.10
2016,08,24,00,23,16.10
2016,08,24,00,24,16.10
2016,08,24,00,25,16.10
2016,08,24,00,26,16.10
2016,08,24,00,27,16.00
2016,08,24,00,28,16.00
2016,08,24,00,29,16.00
2016,08,24,00,30,16.00
2016,08,24,00,31,15.90
2016,08,24,00,32,15.90
2016,08,24,00,33,15.90
2016,08,24,00,34,15.90
2016,08,24,00,35,15.90
2016,08,24,00,36,15.90
2016,08,24,00,37,15.80
2016,08,24,00,38,15.80
2016,08,24,00,39,15.80
2016,08,24,00,40,15.80
2016,08,24,00,41,15.80
2016,08,24,00,42,15.80
2016,08,24,00,43,15.80
2016,08,24,00,44,15.80
2016,08,24,00,45,15.80
2016,08,24,00,46,15.80
2016,08,24,00,47,15.80
2016,08,24,00,48,15.80
2016,08,24,00,49,15.80
2016,08,24,00,50,15.80
2016,08,24,00,51,15.80
2016,08,24,00,52,15.80
2016,08,24,00,53,15.80
2016,08,24,00,54,15.70
2016,08,24,00,55,15.70
2016,08,24,00,56,15.70
2016,08,24,00,57,15.70
2016,08,24,00,58,15.60
2016,08,24,00,59,15.60
2016,08,24,01,00,15.60
2016,08,24,01,01,15.60
2016,08,24,01,02,15.60
2016,08,24,01,03,15.60
2016,08,24,01,04,15.60
2016,08,24,01,05,15.60
2016,08,24,01,06,15.60
2016,08,24,01,07,15.60
2016,08,24,01,08,15.60
2016,08,24,01,09,15.60
2016,08,24,01,10,15.60
2016,08,24,01,11,15.70
2016,08,24,01,12,15.70
2016,08,24,01,13,15.70
2016,08,24,01,14,15.70
2016,08,24,01,15,15.70
2016,08,24,01,16,15.70
2016,08,24,01,17,15.70
2016,08,24,01,18,15.60
2016,08,24,01,19,15.60
2016,08,24,01,20,15.70
2016,08,24,01,21,15.70
2016,08,24,01,22,15.70
2016,08,24,01,23,15.70
2016,08,24,01,24,15.70
2016,08,24,01,25,15.70
2016,08,24,01,26,15.70
2016,08,24,01,27,15.70
2016,08,24,01,28,15.70
2016,08,24,01,29,15.70
2016,08,24,01,30,15.70
2016,08,24,01,31,15.70
2016,08,24,01,32,15.70
2016,08,24,01,33,15.70
2016,08,24,01,34,15.70
2016,08,24,01,35,15.70
2016,08,24,01,36,15.70
2016,08,24,01,37,15.70
2016,08,24,01,38,15.70
2016,08,24,01,39,15.60
2016,08,24,01,40,15.60
2016,08,24,01,41,15.60
2016,08,24,01,42,15.60
2016,08,24,01,43,15.50
2016,08,24,01,44,15.50
2016,08,24,01,45,15.50
2016,08,24,01,46,15.40
2016,08,24,01,47,15.40
2016,08,24,01,48,15.40
2016,08,24,01,49,15.40
2016,08,24,01,50,15.30
2016,08,24,01,51,15.30
2016,08,24,01,52,15.30
2016,08,24,01,53,15.30
2016,08,24,01,54,15.30
2016,08,24,01,55,15.30
2016,08,24,01,56,15.20
2016,08,24,01,57,15.20
2016,08,24,01,58,15.20
2016,08,24,01,59,15.20
2016,08,24,02,00,15.20
2016,08,24,02,01,15.20
2016,08,24,02,02,15.20
2016,08,24,02,03,15.20
2016,08,24,02,04,15.20
2016,08,24,02,05,15.20
2016,08,24,02,06,15.20
2016,08,24,02,07,15.20
2016,08,24,02,08,15.10
2016,08,24,02,09,15.10
2016,08,24,02,10,15.10
2016,08,24,02,11,15.10
2016,08,24,02,12,15.10
2016,08,24,02,13,15.10
2016,08,24,02,14,15.10
2016,08,24,02,15,15.00
2016,08,24,02,16,15.00
2016,08,24,02,17,15.00
2016,08,24,02,18,14.90
2016,08,24,02,19,14.90
2016,08,24,02,20,14.90
2016,08,24,02,21,14.90
2016,08,24,02,22,14.80
2016,08,24,02,23,14.80
2016,08,24,02,24,14.80
2016,08,24,02,25,14.80
2016,08,24,02,26,14.80
2016,08,24,02,27,14.80
2016,08,24,02,28,14.70
2016,08,24,02,29,14.70
2016,08,24,02,30,14.70
2016,08,24,02,31,14.70
2016,08,24,02,32,14.70
2016,08,24,02,33,14.70
2016,08,24,02,34,14.70
2016,08,24,02,35,14.60
2016,08,24,02,36,14.60
2016,08,24,02,37,14.60
2016,08,24,02,38,14.60
2016,08,24,02,39,14.50
2016,08,24,02,40,14.50
2016,08,24,02,41,14.50
2016,08,24,02,42,14.40
2016,08,24,02,43,14.40
2016,08,24,02,44,14.40
2016,08,24,02,45,14.40
2016,08,24,02,46,14.40
2016,08,24,02,47,14.40
2016,08,24,02,48,14.40
2016,08,24,02,49,14.40
2016,08,24,02,50,14.40
2016,08,24,02,51,14.40
2016,08,24,02,52,14.30
2016,08,24,02,53,14.30
2016,08,24,02,54,14.30
2016,08,24,02,55,14.30
2016,08,24,02,56,14.30
2016,08,24,02,57,14.30
2016,08,24,02,58,14.30
2016,08,24,02,59,14.30
2016,08,24,03,00,14.30
2016,08,24,03,01,14.30
2016,08,24,03,02,14.30
2016,08,24,03,03,14.30
2016,08,24,03,04,14.30
2016,08,24,03,05,14.30
2016,08,24,03,06,14.40
2016,08,24,03,07,14.30
2016,08,24,03,08,14.40
2016,08,24,03,09,14.30
2016,08,24,03,10,14.30
2016,08,24,03,11,14.30
2016,08,24,03,12,14.30
2016,08,24,03,13,14.30
2016,08,24,03,14,14.30
2016,08,24,03,15,14.20
2016,08,24,03,16,14.20
2016,08,24,03,17,14.20
2016,08,24,03,18,14.20
2016,08,24,03,19,14.20
2016,08,24,03,20,14.20
2016,08,24,03,21,14.20
2016,08,24,03,22,14.10
2016,08,24,03,23,14.10
2016,08,24,03,24,14.10
2016,08,24,03,25,14.10
2016,08,24,03,26,14.10
2016,08,24,03,27,14.10
2016,08,24,03,28,14.10
2016,08,24,03,29,14.10
2016,08,24,03,30,14.10
2016,08,24,03,31,14.10
2016,08,24,03,32,14.10
2016,08,24,03,33,14.10
2016,08,24,03,34,14.10
2016,08,24,03,35,14.10
2016,08,24,03,36,14.10
2016,08,24,03,37,14.10
2016,08,24,03,38,14.10
2016,08,24,03,39,14.10
2016,08,24,03,40,14.10
2016,08,24,03,41,14.10
2016,08,24,03,42,14.10
2016,08,24,03,43,14.10
2016,08,24,03,44,14.10
2016,08,24,03,45,14.10
2016,08,24,03,46,14.10
2016,08,24,03,47,14.10
2016,08,24,03,48,14.10
2016,08,24,03,49,14.10
2016,08,24,03,50,14.10
2016,08,24,03,51,14.10
2016,08,24,03,52,14.10
2016,08,24,03,53,14.10
2016,08,24,03,54,14.10
2016,08,24,03,55,14.10
2016,08,24,03,56,14.10
2016,08,24,03,57,14.10
2016,08,24,03,58,14.10
2016,08,24,03,59,14.10
2016,08,24,04,00,14.10
2016,08,24,04,01,14.10
2016,08,24,04,02,14.10
2016,08,24,04,03,14.10
2016,08,24,04,04,14.10
2016,08,24,04,05,14.10
2016,08,24,04,06,14.10
2016,08,24,04,07,14.00
2016,08,24,04,08,14.00
2016,08,24,04,09,14.00
2016,08,24,04,10,13.90
2016,08,24,04,11,13.90
2016,08,24,04,12,13.90
2016,08,24,04,13,13.90
2016,08,24,04,14,13.90
2016,08,24,04,15,13.90
2016,08,24,04,16,13.80
2016,08,24,04,17,13.80
2016,08,24,04,18,13.80
2016,08,24,04,19,13.80
2016,08,24,04,20,13.80
2016,08,24,04,21,13.80
2016,08,24,04,22,13.80
2016,08,24,04,23,13.70
2016,08,24,04,24,13.70
2016,08,24,04,25,13.70
2016,08,24,04,26,13.70
2016,08,24,04,27,13.70
2016,08,24,04,28,13.70
2016,08,24,04,29,13.70
2016,08,24,04,30,13.70
2016,08,24,04,31,13.70
2016,08,24,04,32,13.70
2016,08,24,04,33,13.70
2016,08,24,04,34,13.70
2016,08,24,04,35,13.70
2016,08,24,04,36,13.60
2016,08,24,04,37,13.60
2016,08,24,04,38,13.60
2016,08,24,04,39,13.60
2016,08,24,04,40,13.50
2016,08,24,04,41,13.50
2016,08,24,04,42,13.40
2016,08,24,04,43,13.40
2016,08,24,04,44,13.40
2016,08,24,04,45,13.40
2016,08,24,04,46,13.40
2016,08,24,04,47,13.40
2016,08,24,04,48,13.30
2016,08,24,04,49,13.30
2016,08,24,04,50,13.30
2016,08,24,04,51,13.30
2016,08,24,04,52,13.30
2016,08,24,04,53,13.30
2016,08,24,04,54,13.20
2016,08,24,04,55,13.20
2016,08,24,04,56,13.20
2016,08,24,04,57,13.20
2016,08,24,04,58,13.20
2016,08,24,04,59,13.20
2016,08,24,05,00,13.10
2016,08,24,05,01,13.10
2016,08,24,05,02,13.10
2016,08,24,05,03,13.10
2016,08,24,05,04,13.10
2016,08,24,05,05,13.10
2016,08,24,05,06,13.10
2016,08,24,05,07,13.10
2016,08,24,05,08,13.10
2016,08,24,05,09,13.10
2016,08,24,05,10,13.10
2016,08,24,05,11,13.10
2016,08,24,05,12,13.10
2016,08,24,05,13,13.10
2016,08,24,05,14,13.10
2016,08,24,05,15,13.00
2016,08,24,05,16,13.00
2016,08,24,05,17,13.00
2016,08,24,05,18,12.90
2016,08,24,05,19,12.90
2016,08,24,05,20,12.90
2016,08,24,05,21,12.90
2016,08,24,05,22,12.90
2016,08,24,05,23,12.90
2016,08,24,05,24,13.00
2016,08,24,05,25,13.00
2016,08,24,05,26,13.00
2016,08,24,05,27,13.00
2016,08,24,05,28,13.00
2016,08,24,05,29,13.00
2016,08,24,05,30,13.00
2016,08,24,05,31,13.00
2016,08,24,05,32,13.00
2016,08,24,05,33,12.90
2016,08,24,05,34,12.90
2016,08,24,05,35,12.90
2016,08,24,05,36,12.90
2016,08,24,05,37,12.90
2016,08,24,05,38,12.90
2016,08,24,05,39,12.90
2016,08,24,05,40,12.90
2016,08,24,05,41,12.90
2016,08,24,05,42,12.90
2016,08,24,05,43,12.90
2016,08,24,05,44,12.90
2016,08,24,05,45,12.90
2016,08,24,05,46,12.90
2016,08,24,05,47,12.90
2016,08,24,05,48,12.90
2016,08,24,05,49,12.90
2016,08,24,05,50,12.90
2016,08,24,05,51,12.90
2016,08,24,05,52,12.90
2016,08,24,05,53,12.90
2016,08,24,05,54,12.90
2016,08,24,05,55,12.90
2016,08,24,05,56,12.90
2016,08,24,05,57,12.90
2016,08,24,05,58,12.80
2016,08,24,05,59,12.80
2016,08,24,06,00,12.80
2016,08,24,06,01,12.80
2016,08,24,06,02,12.80
2016,08,24,06,03,12.80
2016,08,24,06,04,12.80
2016,08,24,06,05,12.80
2016,08,24,06,06,12.80
2016,08,24,06,07,12.80
2016,08,24,06,08,12.80
2016,08,24,06,09,12.70
2016,08,24,06,10,12.70
2016,08,24,06,11,12.70
2016,08,24,06,12,12.70
2016,08,24,06,13,12.70
2016,08,24,06,14,12.70
2016,08,24,06,15,12.70
2016,08,24,06,16,12.60
2016,08,24,06,17,12.60
2016,08,24,06,18,12.60
2016,08,24,06,19,12.60
2016,08,24,06,20,12.60
2016,08,24,06,21,12.60
2016,08,24,06,22,12.60
2016,08,24,06,23,12.60
2016,08,24,06,24,12.60
2016,08,24,06,25,12.50
2016,08,24,06,26,12.50
2016,08,24,06,27,12.50
2016,08,24,06,28,12.50
2016,08,24,06,29,12.50
2016,08,24,06,30,12.40
2016,08,24,06,31,12.40
2016,08,24,06,32,12.40
2016,08,24,06,33,12.40
2016,08,24,06,34,12.40
2016,08,24,06,35,12.40
2016,08,24,06,36,12.40
2016,08,24,06,37,12.40
2016,08,24,06,38,12.40
2016,08,24,06,39,12.40
2016,08,24,06,40,12.30
2016,08,24,06,41,12.30
2016,08,24,06,42,12.30
2016,08,24,06,43,12.30
2016,08,24,06,44,12.30
2016,08,24,06,45,12.30
2016,08,24,06,46,12.30
2016,08,24,06,47,12.30
2016,08,24,06,48,12.30
2016,08,24,06,49,12.30
2016,08,24,06,50,12.30
2016,08,24,06,51,12.30
2016,08,24,06,52,12.30
2016,08,24,06,53,12.30
2016,08,24,06,54,12.30
2016,08,24,06,55,12.40
2016,08,24,06,56,12.40
2016,08,24,06,57,12.40
2016,08,24,06,58,12.40
2016,08,24,06,59,12.40
2016,08,24,07,00,12.40
2016,08,24,07,01,12.40
2016,08,24,07,02,12.40
2016,08,24,07,03,12.40
2016,08,24,07,04,12.40
2016,08,24,07,05,12.40
2016,08,24,07,06,12.40
2016,08,24,07,07,12.40
2016,08,24,07,08,12.40
2016,08,24,07,09,12.40
2016,08,24,07,10,12.40
2016,08,24,07,11,12.40
2016,08,24,07,12,12.40
2016,08,24,07,13,12.40
2016,08,24,07,14,12.40
2016,08,24,07,15,12.40
2016,08,24,07,16,12.40
2016,08,24,07,17,12.50
2016,08,24,07,18,12.50
2016,08,24,07,19,12.50
2016,08,24,07,20,12.50
2016,08,24,07,21,12.50
2016,08,24,07,22,12.50
2016,08,24,07,23,12.50
2016,08,24,07,24,12.50
2016,08,24,07,25,12.60
2016,08,24,07,26,12.60
2016,08,24,07,27,12.60
2016,08,24,07,28,12.60
2016,08,24,07,29,12.60
2016,08,24,07,30,12.70
2016,08,24,07,31,12.70
2016,08,24,07,32,12.70
2016,08,24,07,33,12.70
2016,08,24,07,34,12.70
2016,08,24,07,35,12.80
2016,08,24,07,36,12.80
2016,08,24,07,37,12.80
2016,08,24,07,38,12.90
2016,08,24,07,39,12.90
2016,08,24,07,40,12.90
2016,08,24,07,41,12.90
2016,08,24,07,42,13.00
2016,08,24,07,43,13.00
2016,08,24,07,44,13.10
2016,08,24,07,45,13.20
2016,08,24,07,46,13.20
2016,08,24,07,47,13.30
2016,08,24,07,48,13.30
2016,08,24,07,49,13.40
2016,08,24,07,50,13.40
2016,08,24,07,51,13.50
2016,08,24,07,52,13.60
2016,08,24,07,53,13.60
2016,08,24,07,54,13.70
2016,08,24,07,55,13.70
2016,08,24,07,56,13.80
2016,08,24,07,57,13.90
2016,08,24,07,58,13.90
2016,08,24,07,59,14.00
2016,08,24,08,00,14.00
2016,08,24,08,01,14.20
2016,08,24,08,02,14.20
2016,08,24,08,03,14.30
2016,08,24,08,04,14.40
2016,08,24,08,05,14.50
2016,08,24,08,06,14.60
2016,08,24,08,07,14.60
2016,08,24,08,08,14.70
2016,08,24,08,09,14.70
2016,08,24,08,10,14.80
2016,08,24,08,11,14.90
2016,08,24,08,12,14.90
2016,08,24,08,13,15.00
2016,08,24,08,14,15.20
2016,08,24,08,15,15.30
2016,08,24,08,16,15.40
2016,08,24,08,17,15.60
2016,08,24,08,18,15.70
2016,08,24,08,19,15.80
2016,08,24,08,20,15.90
2016,08,24,08,21,16.00
2016,08,24,08,22,16.10
2016,08,24,08,23,16.20
2016,08,24,08,24,16.30
2016,08,24,08,25,16.40
2016,08,24,08,26,16.50
2016,08,24,08,27,16.70
2016,08,24,08,28,16.80
2016,08,24,08,29,16.90
2016,08,24,08,30,17.00
2016,08,24,08,31,17.10
2016,08,24,08,32,17.20
2016,08,24,08,33,17.20
2016,08,24,08,34,17.30
2016,08,24,08,35,17.30
2016,08,24,08,36,17.40
2016,08,24,08,37,17.50
2016,08,24,08,38,17.60
2016,08,24,08,39,17.60
2016,08,24,08,40,17.70
2016,08,24,08,41,17.80
2016,08,24,08,42,17.90
2016,08,24,08,43,17.90
2016,08,24,08,44,18.00
2016,08,24,08,45,18.10
2016,08,24,08,46,18.20
2016,08,24,08,47,18.30
2016,08,24,08,48,18.40
2016,08,24,08,49,18.50
2016,08,24,08,50,18.50
2016,08,24,08,51,18.60
2016,08,24,08,52,18.60
2016,08,24,08,53,18.60
2016,08,24,08,54,18.70
2016,08,24,08,55,18.70
2016,08,24,08,56,18.70
2016,08,24,08,57,18.70
2016,08,24,08,58,18.80
2016,08,24,08,59,18.80
2016,08,24,09,00,18.80
2016,08,24,09,01,18.80
2016,08,24,09,02,18.80
2016,08,24,09,03,18.80
2016,08,24,09,04,18.90
2016,08,24,09,05,18.90
2016,08,24,09,06,19.00
2016,08,24,09,07,19.00
2016,08,24,09,08,19.10
2016,08,24,09,09,19.10
2016,08,24,09,10,19.10
2016,08,24,09,11,19.10
2016,08,24,09,12,19.20
2016,08,24,09,13,19.20
2016,08,24,09,14,19.20
2016,08,24,09,15,19.30
2016,08,24,09,16,19.40
2016,08,24,09,17,19.40
2016,08,24,09,18,19.40
2016,08,24,09,19,19.50
2016,08,24,09,20,19.50
2016,08,24,09,21,19.50
2016,08,24,09,22,19.60
2016,08,24,09,23,19.60
2016,08,24,09,24,19.60
2016,08,24,09,25,19.70
2016,08,24,09,26,19.70
2016,08,24,09,27,19.80
2016,08,24,09,28,19.80
2016,08,24,09,29,19.90
2016,08,24,09,30,20.00
2016,08,24,09,31,20.10
2016,08,24,09,32,20.20
2016,08,24,09,33,20.30
2016,08,24,09,34,20.30
2016,08,24,09,35,20.40
2016,08,24,09,36,20.40
2016,08,24,09,37,20.50
2016,08,24,09,38,20.50
2016,08,24,09,39,20.60
2016,08,24,09,40,20.60
2016,08,24,09,41,20.60
2016,08,24,09,42,20.70
2016,08,24,09,43,20.70
2016,08,24,09,44,20.70
2016,08,24,09,45,20.80
2016,08,24,09,46,20.80
2016,08,24,09,47,20.90
2016,08,24,09,48,21.00
2016,08,24,09,49,21.00
2016,08,24,09,50,21.10
2016,08,24,09,51,21.10
2016,08,24,09,52,21.10
2016,08,24,09,53,21.10
2016,08,24,09,54,21.10
2016,08,24,09,55,21.10
2016,08,24,09,56,21.20
2016,08,24,09,57,21.20
2016,08,24,09,58,21.20
2016,08,24,09,59,21.20
2016,08,24,10,00,21.20
2016,08,24,10,01,21.30
2016,08,24,10,02,21.30
2016,08,24,10,03,21.40
2016,08,24,10,04,21.40
2016,08,24,10,05,21.40
2016,08,24,10,06,21.40
2016,08,24,10,07,21.40
2016,08,24,10,08,21.40
2016,08,24,10,09,21.40
2016,08,24,10,10,21.40
2016,08,24,10,11,21.40
2016,08,24,10,12,21.40
2016,08,24,10,13,21.40
2016,08,24,10,14,21.50
2016,08,24,10,15,21.50
2016,08,24,10,16,21.50
2016,08,24,10,17,21.50
2016,08,24,10,18,21.50
2016,08,24,10,19,21.40
2016,08,24,10,20,21.30
2016,08,24,10,21,21.30
2016,08,24,10,22,21.20
2016,08,24,10,23,21.20
2016,08,24,10,24,21.10
2016,08,24,10,25,21.10
2016,08,24,10,26,21.10
2016,08,24,10,27,21.10
2016,08,24,10,28,21.10
2016,08,24,10,29,21.10
2016,08,24,10,30,21.10
2016,08,24,10,31,21.10
2016,08,24,10,32,21.10
2016,08,24,10,33,21.10
2016,08,24,10,34,21.00
2016,08,24,10,35,21.00
2016,08,24,10,36,20.90
2016,08,24,10,37,20.90
2016,08,24,10,38,20.80
2016,08,24,10,39,20.70
2016,08,24,10,40,20.60
2016,08,24,10,41,20.50
2016,08,24,10,42,20.40
2016,08,24,10,43,20.40
2016,08,24,10,44,20.40
2016,08,24,10,45,20.40
2016,08,24,10,46,20.40
2016,08,24,10,47,20.40
2016,08,24,10,48,20.40
2016,08,24,10,49,20.40
2016,08,24,10,50,20.30
2016,08,24,10,51,20.30
2016,08,24,10,52,20.40
2016,08,24,10,53,20.40
2016,08,24,10,54,20.40
2016,08,24,10,55,20.60
2016,08,24,10,56,20.70
2016,08,24,10,57,20.80
2016,08,24,10,58,20.80
2016,08,24,10,59,20.90
2016,08,24,11,00,21.00
2016,08,24,11,01,21.00
2016,08,24,11,02,21.00
2016,08,24,11,03,21.00
2016,08,24,11,04,21.10
2016,08,24,11,05,21.10
2016,08,24,11,06,21.10
2016,08,24,11,07,21.10
2016,08,24,11,08,21.10
2016,08,24,11,09,21.10
2016,08,24,11,10,21.20
2016,08,24,11,11,21.20
2016,08,24,11,12,21.20
2016,08,24,11,13,21.30
2016,08,24,11,14,21.30
2016,08,24,11,15,21.40
2016,08,24,11,16,21.40
2016,08,24,11,17,21.50
2016,08,24,11,18,21.60
2016,08,24,11,19,21.60
2016,08,24,11,20,21.70
2016,08,24,11,21,21.80
2016,08,24,11,22,21.90
2016,08,24,11,23,22.00
2016,08,24,11,24,22.10
2016,08,24,11,25,22.20
2016,08,24,11,26,22.20
2016,08,24,11,27,22.30
2016,08,24,11,28,22.30
2016,08,24,11,29,22.30
2016,08,24,11,30,22.50
2016,08,24,11,31,22.60
2016,08,24,11,32,22.70
2016,08,24,11,33,22.70
2016,08,24,11,34,22.80
2016,08,24,11,35,22.80
2016,08,24,11,36,22.80
2016,08,24,11,37,22.80
2016,08,24,11,38,22.80
2016,08,24,11,39,22.80
2016,08,24,11,40,22.80
2016,08,24,11,41,22.80
2016,08,24,11,42,22.70
2016,08,24,11,43,22.70
2016,08,24,11,44,22.70
2016,08,24,11,45,22.70
2016,08,24,11,46,22.70
2016,08,24,11,47,22.70
2016,08,24,11,48,22.70
2016,08,24,11,49,22.70
2016,08,24,11,50,22.70
2016,08,24,11,51,22.70
2016,08,24,11,52,22.80
2016,08,24,11,53,22.90
2016,08,24,11,54,22.90
2016,08,24,11,55,22.90
2016,08,24,11,56,23.00
2016,08,24,11,57,23.10
2016,08,24,11,58,23.00
2016,08,24,11,59,22.80
2016,08,24,12,00,22.70
2016,08,24,12,01,22.70
2016,08,24,12,02,22.70
2016,08,24,12,03,22.70
2016,08,24,12,04,22.70
2016,08,24,12,05,22.80
2016,08,24,12,06,22.80
2016,08,24,12,07,22.90
2016,08,24,12,08,23.00
2016,08,24,12,09,23.10
2016,08,24,12,10,23.20
2016,08,24,12,11,23.30
2016,08,24,12,12,23.40
2016,08,24,12,13,23.50
2016,08,24,12,14,23.50
2016,08,24,12,15,23.60
2016,08,24,12,16,23.60
2016,08,24,12,17,23.70
2016,08,24,12,18,23.60
2016,08,24,12,19,23.60
2016,08,24,12,20,23.60
2016,08,24,12,21,23.60
2016,08,24,12,22,23.60
2016,08,24,12,23,23.60
2016,08,24,12,24,23.60
2016,08,24,12,25,23.60
2016,08,24,12,26,23.60
2016,08,24,12,27,23.60
2016,08,24,12,28,23.50
2016,08,24,12,29,23.40
2016,08,24,12,30,23.40
2016,08,24,12,31,23.30
2016,08,24,12,32,23.30
2016,08,24,12,33,23.30
2016,08,24,12,34,23.20
2016,08,24,12,35,23.20
2016,08,24,12,36,23.20
2016,08,24,12,37,23.20
2016,08,24,12,38,23.20
2016,08,24,12,39,23.20
2016,08,24,12,40,23.20
2016,08,24,12,41,23.30
2016,08,24,12,42,23.30
2016,08,24,12,43,23.30
2016,08,24,12,44,23.40
2016,08,24,12,45,23.40
2016,08,24,12,46,23.50
2016,08,24,12,47,23.60
2016,08,24,12,48,23.60
2016,08,24,12,49,23.60
2016,08,24,12,50,23.60
2016,08,24,12,51,23.60
2016,08,24,12,52,23.50
2016,08,24,12,53,23.50
2016,08,24,12,54,23.40
2016,08,24,12,55,23.40
2016,08,24,12,56,23.40
2016,08,24,12,57,23.40
2016,08,24,12,58,23.50
2016,08,24,12,59,23.50
2016,08,24,13,00,23.50
2016,08,24,13,01,23.50
2016,08,24,13,02,23.50
2016,08,24,13,03,23.40
2016,08,24,13,04,23.40
2016,08,24,13,05,23.40
2016,08,24,13,06,23.40
2016,08,24,13,07,23.40
2016,08,24,13,08,23.40
2016,08,24,13,09,23.50
2016,08,24,13,10,23.50
2016,08,24,13,11,23.70
2016,08,24,13,12,23.70
2016,08,24,13,13,23.70
2016,08,24,13,14,23.70
2016,08,24,13,15,23.60
2016,08,24,13,16,23.60
2016,08,24,13,17,23.50
2016,08,24,13,18,23.60
2016,08,24,13,19,23.60
2016,08,24,13,20,23.60
2016,08,24,13,21,23.60
2016,08,24,13,22,23.70
2016,08,24,13,23,23.70
2016,08,24,13,24,23.70
2016,08,24,13,25,23.80
2016,08,24,13,26,23.80
2016,08,24,13,27,23.90
2016,08,24,13,28,23.90
2016,08,24,13,29,23.90
2016,08,24,13,30,23.90
2016,08,24,13,31,23.80
2016,08,24,13,32,23.80
2016,08,24,13,33,23.70
2016,08,24,13,34,23.70
2016,08,24,13,35,23.70
2016,08,24,13,36,23.70
2016,08,24,13,37,23.70
2016,08,24,13,38,23.70
2016,08,24,13,39,23.70
2016,08,24,13,40,23.70
2016,08,24,13,41,23.70
2016,08,24,13,42,23.70
2016,08,24,13,43,23.60
2016,08,24,13,44,23.60
2016,08,24,13,45,23.50
2016,08,24,13,46,23.30
2016,08,24,13,47,23.30
2016,08,24,13,48,23.10
2016,08,24,13,49,23.00
2016,08,24,13,50,22.90
2016,08,24,13,51,22.70
2016,08,24,13,52,22.60
2016,08,24,13,53,22.50
2016,08,24,13,54,22.50
2016,08,24,13,55,22.50
2016,08,24,13,56,22.60
2016,08,24,13,57,22.60
2016,08,24,13,58,22.70
2016,08,24,13,59,22.70
2016,08,24,14,00,22.70
2016,08,24,14,01,22.70
2016,08,24,14,02,22.60
2016,08,24,14,03,22.50
2016,08,24,14,04,22.50
2016,08,24,14,05,22.50
2016,08,24,14,06,22.60
2016,08,24,14,07,22.60
2016,08,24,14,08,22.60
2016,08,24,14,09,22.60
2016,08,24,14,10,22.60
2016,08,24,14,11,22.60
2016,08,24,14,12,22.60
2016,08,24,14,13,22.70
2016,08,24,14,14,22.70
2016,08,24,14,15,22.80
2016,08,24,14,16,22.90
2016,08,24,14,17,22.90
2016,08,24,14,18,22.90
2016,08,24,14,19,22.90
2016,08,24,14,20,22.90
2016,08,24,14,21,23.00
2016,08,24,14,22,23.00
2016,08,24,14,23,23.10
2016,08,24,14,24,23.10
2016,08,24,14,25,23.20
2016,08,24,14,26,23.30
2016,08,24,14,27,23.40
2016,08,24,14,28,23.60
2016,08,24,14,29,23.60
2016,08,24,14,30,23.70
2016,08,24,14,31,23.70
2016,08,24,14,32,23.80
2016,08,24,14,33,23.80
2016,08,24,14,34,23.90
2016,08,24,14,35,24.00
2016,08,24,14,36,24.10
2016,08,24,14,37,24.20
2016,08,24,14,38,24.30
2016,08,24,14,39,24.40
2016,08,24,14,40,24.40
2016,08,24,14,41,24.60
2016,08,24,14,42,24.90
2016,08,24,14,43,25.00
2016,08,24,14,44,25.10
2016,08,24,14,45,25.30
2016,08,24,14,46,25.40
2016,08,24,14,47,25.60
2016,08,24,14,48,25.70
2016,08,24,14,49,25.80
2016,08,24,14,50,26.00
2016,08,24,14,51,26.10
2016,08,24,14,52,26.20
2016,08,24,14,53,26.30
2016,08,24,14,54,26.30
2016,08,24,14,55,26.30
2016,08,24,14,56,26.30
2016,08,24,14,57,26.30
2016,08,24,14,58,26.30
2016,08,24,14,59,26.20
2016,08,24,15,00,26.20
2016,08,24,15,01,26.20
2016,08,24,15,02,26.20
2016,08,24,15,03,26.20
2016,08,24,15,04,26.20
2016,08,24,15,05,26.30
2016,08,24,15,06,26.30
2016,08,24,15,07,26.40
2016,08,24,15,08,26.60
2016,08,24,15,09,26.70
2016,08,24,15,10,26.70
2016,08,24,15,11,26.70
2016,08,24,15,12,26.80
2016,08,24,15,13,26.60
2016,08,24,15,14,26.50
2016,08,24,15,15,26.40
2016,08,24,15,16,26.30
2016,08,24,15,17,26.30
2016,08,24,15,18,26.30
2016,08,24,15,19,26.30
2016,08,24,15,20,26.40
2016,08,24,15,21,26.40
2016,08,24,15,22,26.60
2016,08,24,15,23,26.60
2016,08,24,15,24,26.70
2016,08,24,15,25,26.70
2016,08,24,15,26,26.70
2016,08,24,15,27,26.60
2016,08,24,15,28,26.50
2016,08,24,15,29,26.40
2016,08,24,15,30,26.40
2016,08,24,15,31,26.40
2016,08,24,15,32,26.50
2016,08,24,15,33,26.50
2016,08,24,15,34,26.60
2016,08,24,15,35,26.60
2016,08,24,15,36,26.60
2016,08,24,15,37,26.70
2016,08,24,15,38,26.80
2016,08,24,15,39,26.80
2016,08,24,15,40,26.80
2016,08,24,15,41,26.80
2016,08,24,15,42,26.90
2016,08,24,15,43,27.00
2016,08,24,15,44,27.00
2016,08,24,15,45,27.00
2016,08,24,15,46,27.00
2016,08,24,15,47,26.90
2016,08,24,15,48,26.80
2016,08,24,15,49,26.70
2016,08,24,15,50,26.70
2016,08,24,15,51,26.60
2016,08,24,15,52,26.60
2016,08,24,15,53,26.60
2016,08,24,15,54,26.60
2016,08,24,15,55,26.60
2016,08,24,15,56,26.60
2016,08,24,15,57,26.50
2016,08,24,15,58,26.50
2016,08,24,15,59,26.40
2016,08,24,16,00,26.30
2016,08,24,16,01,26.30
2016,08,24,16,02,26.20
2016,08,24,16,03,26.20
2016,08,24,16,04,26.20
2016,08,24,16,05,26.20
2016,08,24,16,06,26.20
2016,08,24,16,07,26.30
2016,08,24,16,08,26.30
2016,08,24,16,09,26.40
2016,08,24,16,10,26.40
2016,08,24,16,11,26.30
2016,08,24,16,12,26.30
2016,08,24,16,13,26.30
2016,08,24,16,14,26.30
2016,08,24,16,15,26.30
2016,08,24,16,16,26.40
2016,08,24,16,17,26.40
2016,08,24,16,18,26.40
2016,08,24,16,19,26.50
2016,08,24,16,20,26.50
2016,08,24,16,21,26.60
2016,08,24,16,22,26.70
2016,08,24,16,23,26.70
2016,08,24,16,24,26.70
2016,08,24,16,25,26.70
2016,08,24,16,26,26.80
2016,08,24,16,27,26.80
2016,08,24,16,28,26.80
2016,08,24,16,29,26.80
2016,08,24,16,30,26.80
2016,08,24,16,31,26.70
2016,08,24,16,32,26.70
2016,08,24,16,33,26.70
2016,08,24,16,34,26.70
2016,08,24,16,35,26.70
2016,08,24,16,36,26.70
2016,08,24,16,37,26.80
2016,08,24,16,38,26.80
2016,08,24,16,39,26.80
2016,08,24,16,40,26.90
2016,08,24,16,41,27.00
2016,08,24,16,42,27.10
2016,08,24,16,43,27.10
2016,08,24,16,44,27.20
2016,08,24,16,45,27.20
2016,08,24,16,46,27.20
2016,08,24,16,47,27.20
2016,08,24,16,48,27.20
2016,08,24,16,49,27.20
2016,08,24,16,50,27.20
2016,08,24,16,51,27.20
2016,08,24,16,52,27.20
2016,08,24,16,53,27.20
2016,08,24,16,54,27.20
2016,08,24,16,55,27.20
2016,08,24,16,56,27.30
2016,08,24,16,57,27.30
2016,08,24,16,58,27.30
2016,08,24,16,59,27.40
2016,08,24,17,00,27.40
2016,08,24,17,01,27.40
2016,08,24,17,02,27.50
2016,08,24,17,03,27.50
2016,08,24,17,04,27.50
2016,08,24,17,05,27.50
2016,08,24,17,06,27.50
2016,08,24,17,07,27.50
2016,08,24,17,08,27.50
2016,08,24,17,09,27.50
2016,08,24,17,10,27.60
2016,08,24,17,11,27.60
2016,08,24,17,12,27.70
2016,08,24,17,13,27.70
2016,08,24,17,14,27.70
2016,08,24,17,15,27.60
2016,08,24,17,16,27.60
2016,08,24,17,17,27.60
2016,08,24,17,18,27.60
2016,08,24,17,19,27.60